User: anonymous   Login
Location: Unspecified
(0.0000°N, 0.0000°E)
Time: 14:52:27
(UTC+00:00)
Language:

STARLINK-1621 - Orbit

View from above orbital plane
View from above orbital plane
View from above satellite
View from above satellite

Ground track
Ground track

The orbit data is extracted from the following two-line orbital elements,

1 46127C 20057L   24194.47270833  .00014054  00000+0  94194-3 0  1948
2 46127  53.0529 133.5428 0001338  86.2194 123.3953 15.06373277    15
Epoch (UTC): 12 July 2024 11:20:42
Eccentricity: 0.0001338
inclination: 53.0529°
perigee height: 546 km
apogee height: 548 km
right ascension of ascending node: 133.5428°
argument of perigee: 86.2194°
revolutions per day: 15.06373277
mean anomaly at epoch: 123.3953°
orbit number at epoch: 1

The dashed part of the orbit path shows where the satellite is in the earth's shadow,  

DLR